Starlink 32864

operational
NORAD ID: 62862 Int'l Des: 2025-022 Owner: SPXS Country: US Constellation: starlink
LEOCIRCULAR

About Starlink 32864

Description loading...

Live Position

Loading 3D Globe...

Upcoming Passes

Altitude History

Altitude vs Time

uPlot chart will show altitude changes over time

Two-Line Element Set

1 62862U 25022J 25308.30182834 .00028040 00000-0 95470-3 0 9994
2 62862 53.1593 351.9486 0001937 87.0337 273.0885 15.30219242 42701
Epoch: Nov 4, 2025 • Age: 9 hours

Current Status

Altitude 474.9 km
Velocity 7.63 km/s
Sub-Earth Point 16.05°N, 122.87°W
Launch Date Feb 2, 2025
Age 0.7 years
Type internet

Technical Details

Classification Payload
Mass 730.00 kg
Dry Mass 700.00 kg
Total Mass 730.00 kg
Length 0.30 m
Diameter 4.10 m
Span 29.00 m
Shape Box + pan
Manufacturer SPXS
Bus Type Starlink V2M
Phase Status In Orbit
Owner/State SPXS/US

Large Constellations

Loading constellations...